Location: Henham
(51.9333°N, 0.2500°E)
Time: 23:16:30
(UTC+00:00)

SL-08 R/B - Pass Details

Date: 23 October 2019
Orbit: 943 x 1009 km, 82.9° (Epoch: 14 November)

Event Time Altitude Azimuth Distance (km) Brightness Sun altitude
Rises 19:01:21 0° 350° (N) 3,641 7.7 -21.0°
Reaches altitude 10° 19:03:52 10° 352° (N) 2,686 7.0 -21.4°
Maximum altitude 19:10:00 74° 78° (ENE) 986 4.3 -22.3°
Enters shadow 19:13:57 23° 160° (SSE) 1,889 5.7 -22.9°
